Flag for U.S.A. Weather past 2 weeks in Oklahoma City, Oklahoma, U.S.A.

Now
61 °F

More clouds than sun.


Feels Like: 61 °F
Forecast: 61 / 78 °F
Wind: 9 mph from South

Location: Will Rogers World Airport

Current Time: Oct 23, 2014 at 9:37:29 AM

Latest Report: Oct 23, 2014 at 8:52 AM


Visibility: 10 mi

Pressure: 30.11 "Hg

Humidity: 83%

Dew point: 56 °F

Location of Oklahoma CityLocation

Historic Weather in Oklahoma City — Graph

°F

Oklahoma City temperature yesterday

Maximum temperature yesterday: 79 °F (at 1:52 PM)
Minimum temperature yesterday: 55 °F (at 7:52 AM)
Average temperature yesterday: 66 °F

Past Weeks' High & Low Weather Summary

 TemperatureHumidityPressure
High91 °F (Oct 9, 2:52 PM)94% (Oct 10, 6:04 PM)30.18 "Hg (Oct 10, 6:04 PM)
Low45 °F (Oct 15, 3:52 AM)21% (Oct 15, 3:52 PM)29.51 "Hg (Oct 13, 4:59 AM)
Average65 °F67%29.96 "Hg
* Reported Oct 8 7:52 AM — Oct 23 7:52 AM, Oklahoma City, Weather by CustomWeather, © 2014

Note: Actual official high and low records may vary slightly from our data, if they occured in-between our weather recording intervals... More about our weather records

Advertising

Oklahoma City weather history for previous 24 hours

 ConditionsComfort  
Time TempWeatherWind HumidityBarometerVisibility
7:52 AM
Oct 23
61 °FOvercast.6 mph83%30.09 "Hg10 mi
6:52 AM61 °FOvercast.8 mph83%30.08 "Hg10 mi
5:52 AM62 °FMostly cloudy.8 mph80%30.07 "Hg10 mi
4:52 AM62 °FMostly cloudy.8 mph83%30.07 "Hg10 mi
3:52 AM63 °FMostly cloudy.8 mph84%30.06 "Hg10 mi
2:52 AM63 °FPartly cloudy.8 mph84%30.07 "Hg10 mi
1:52 AM63 °FMostly cloudy.3 mph93%30.07 "Hg7 mi
12:52 AM63 °FOvercast.3 mph90%30.07 "Hg8 mi
11:52 PM
Oct 22
62 °FOvercast.No wind93%30.09 "Hg10 mi
10:52 PM62 °FMostly cloudy.5 mph90%30.09 "Hg10 mi
9:52 PM63 °FLight rain. Overcast.No wind87%30.09 "Hg9 mi
8:52 PM64 °FLight rain. Mostly cloudy.No wind84%30.09 "Hg10 mi
7:52 PM64 °FRain. Fog.8 mph90%30.10 "Hg5 mi
6:52 PM70 °FLight rain. Mostly cloudy.8 mph73%30.07 "Hg8 mi
5:52 PM74 °FMostly cloudy.9 mph56%30.05 "Hg10 mi
4:52 PM76 °FBroken clouds.12 mph52%30.05 "Hg10 mi
3:52 PM78 °FBroken clouds.14 mph48%30.05 "Hg10 mi
2:52 PM77 °FBroken clouds.14 mph48%30.06 "Hg10 mi
1:52 PM79 °FPartly sunny.13 mph48%30.09 "Hg10 mi
12:52 PM76 °FPartly sunny.13 mph56%30.11 "Hg10 mi
11:52 AM75 °FPartly sunny.10 mph60%30.14 "Hg10 mi
10:52 AM71 °FSunny.13 mph68%30.14 "Hg10 mi
9:52 AM66 °FSunny.7 mph81%30.14 "Hg9 mi
Weather by CustomWeather, © 2014

See weather overviewHow to use our weather pages